| time (UTC) | temp C | wind direction | speed KPH | gust KPH | rain 1hr cm | rain 24hr cm | rain mn cm | humidity % | barometer mb |
| 20260504024021 | 13 | 142 | 0.0 | 0.0 | 0.00 | 1.32 | 0.43 | 95 | 1011.5 |
| 20260504023521 | 13 | 142 | 0.0 | 0.0 | 0.00 | 1.32 | 0.43 | 95 | 1011.5 |
| 20260504023021 | 13 | 142 | 0.0 | 0.0 | 0.00 | 1.32 | 0.43 | 95 | 1011.7 |
| 20260504022521 | 13 | 142 | 0.0 | 0.0 | 0.00 | 1.32 | 0.43 | 95 | 1011.7 |
| 20260504022032 | 13 | 142 | 0.0 | 0.0 | 0.00 | 1.32 | 0.43 | 95 | 1011.8 |
| 20260504021521 | 13 | 142 | 0.0 | 0.0 | 0.00 | 1.32 | 0.43 | 95 | 1011.7 |
| 20260504021032 | 13 | 142 | 0.0 | 0.0 | 0.00 | 1.32 | 0.43 | 95 | 1011.7 |
| 20260504020521 | 13 | 142 | 0.0 | 0.0 | 0.03 | 1.32 | 0.43 | 95 | 1011.7 |
| 20260504020023 | 13 | 172 | 0.0 | 0.0 | 0.05 | 1.32 | 0.43 | 95 | 1011.7 |
| 20260504015532 | 13 | 172 | 0.0 | 3.2 | 0.10 | 1.32 | 0.43 | 95 | 1011.9 |
| 20260504015020 | 13 | 172 | 1.6 | 3.2 | 0.15 | 1.32 | 0.43 | 95 | 1011.9 |
| 20260504014521 | 13 | 153 | 0.0 | 3.2 | 0.28 | 1.32 | 0.43 | 95 | 1011.9 |
| 20260504014022 | 13 | 168 | 0.0 | 3.2 | 0.33 | 1.32 | 0.43 | 95 | 1011.9 |
| 20260504013521 | 13 | 236 | 0.0 | 4.8 | 0.33 | 1.32 | 0.43 | 95 | 1011.8 |
| 20260504013021 | 13 | 281 | 3.2 | 4.8 | 0.33 | 1.32 | 0.43 | 95 | 1011.5 |
| 20260504012522 | 13 | 91 | 0.0 | 8.0 | 0.33 | 1.32 | 0.43 | 95 | 1011.3 |
| 20260504012021 | 13 | 108 | 1.6 | 8.0 | 0.33 | 1.32 | 0.43 | 95 | 1011.1 |
| 20260504011521 | 13 | 120 | 1.6 | 3.2 | 0.33 | 1.32 | 0.43 | 95 | 1011.1 |
| 20260504011021 | 13 | 86 | 1.6 | 3.2 | 0.33 | 1.32 | 0.43 | 95 | 1011.2 |
| 20260504010521 | 13 | 104 | 1.6 | 3.2 | 0.33 | 1.30 | 0.43 | 95 | 1011.4 |
| 20260504010021 | 13 | 91 | 0.0 | 1.6 | 0.28 | 1.27 | 0.38 | 95 | 1011.6 |
| 20260504005532 | 13 | 89 | 0.0 | 1.6 | 0.23 | 1.19 | 0.33 | 95 | 1011.7 |
| 20260504005021 | 13 | 89 | 0.0 | 4.8 | 0.18 | 1.17 | 0.28 | 95 | 1011.5 |
| 20260504004533 | 13 | 259 | 1.6 | 4.8 | 0.05 | 1.02 | 0.15 | 95 | 1011.6 |
| 20260504004022 | 13 | 103 | 0.0 | 3.2 | 0.00 | 0.99 | 0.10 | 95 | 1011.2 |
| 20260504003521 | 13 | 103 | 0.0 | 3.2 | 0.00 | 0.99 | 0.10 | 95 | 1011.1 |
| 20260504003042 | 13 | 103 | 0.0 | 0.0 | 0.05 | 0.99 | 0.10 | 95 | 1010.9 |
| 20260504002520 | 13 | 84 | 0.0 | 0.0 | 0.10 | 0.99 | 0.10 | 95 | 1011.0 |
| 20260504002020 | 13 | 84 | 0.0 | 0.0 | 0.10 | 0.99 | 0.10 | 95 | 1011.1 |
| 20260504001521 | 13 | 84 | 0.0 | 0.0 | 0.10 | 0.99 | 0.10 | 95 | 1011.2 |
| 20260504001020 | 13 | 84 | 0.0 | 0.0 | 0.10 | 0.99 | 0.10 | 95 | 1011.2 |
| 20260504000520 | 13 | 84 | 0.0 | 0.0 | 0.10 | 0.99 | 0.10 | 95 | 1011.1 |
| 20260504000020 | 13 | 84 | 0.0 | 0.0 | 0.10 | 0.99 | 0.10 | 95 | 1011.2 |
| 20260503235520 | 13 | 85 | 0.0 | 0.0 | 0.10 | 0.99 | 0.10 | 95 | 1011.2 |
| 20260503235021 | 13 | 85 | 0.0 | 0.0 | 0.10 | 0.99 | 0.10 | 95 | 1011.2 |
| 20260503234522 | 13 | 85 | 0.0 | 0.0 | 0.10 | 0.99 | 0.10 | 95 | 1011.3 |
| 20260503234033 | 13 | 85 | 0.0 | 0.0 | 0.10 | 0.99 | 0.10 | 95 | 1011.4 |
| 20260503233521 | 13 | 79 | 0.0 | 0.0 | 0.10 | 0.99 | 0.10 | 95 | 1011.5 |
| 20260503233020 | 13 | 79 | 0.0 | 0.0 | 0.03 | 0.89 | 0.03 | 95 | 1011.9 |
| 20260503232520 | 13 | 79 | 0.0 | 0.0 | 0.00 | 0.89 | 0.00 | 95 | 1012.0 |
| 20260503232031 | 13 | 79 | 0.0 | 0.0 | 0.00 | 0.89 | 0.00 | 94 | 1011.9 |
| 20260503231521 | 13 | 79 | 0.0 | 0.0 | 0.00 | 0.89 | 0.00 | 95 | 1011.9 |
| 20260503231021 | 14 | 283 | 0.0 | 1.6 | 0.00 | 0.89 | 0.00 | 95 | 1011.9 |
| 20260503230520 | 14 | 283 | 0.0 | 1.6 | 0.00 | 0.89 | 0.00 | 95 | 1012.0 |
| 20260503230020 | 14 | 283 | 0.0 | 1.6 | 0.00 | 0.89 | 0.00 | 94 | 1012.0 |
| 20260503225520 | 14 | 283 | 0.0 | 1.6 | 0.00 | 0.89 | 0.00 | 94 | 1011.9 |
| 20260503225031 | 14 | 125 | 0.0 | 3.2 | 0.00 | 0.89 | 0.00 | 94 | 1011.9 |
| 20260503224521 | 14 | 125 | 0.0 | 3.2 | 0.03 | 0.89 | 0.00 | 94 | 1011.9 |
| 20260503223521 | 14 | 121 | 0.0 | 0.0 | 0.13 | 0.89 | 0.00 | 94 | 1012.0 |
| 20260503223021 | 14 | 121 | 0.0 | 0.0 | 0.23 | 0.89 | 0.00 | 94 | 1012.2 |
| 20260503222531 | 14 | 121 | 0.0 | 0.0 | 0.23 | 0.89 | 0.00 | 94 | 1012.2 |
| 20260503222020 | 14 | 239 | 0.0 | 0.0 | 0.23 | 0.89 | 0.00 | 94 | 1012.1 |
| 20260503221521 | 14 | 239 | 0.0 | 0.0 | 0.25 | 0.89 | 0.00 | 94 | 1012.3 |
| 20260503221021 | 14 | 120 | 0.0 | 0.0 | 0.30 | 0.89 | 0.00 | 94 | 1012.1 |
| 20260503220521 | 14 | 120 | 0.0 | 1.6 | 0.30 | 0.89 | 0.00 | 94 | 1012.2 |
| 20260503220020 | 14 | 120 | 0.0 | 1.6 | 0.33 | 0.89 | 0.00 | 94 | 1012.3 |
| 20260503215532 | 15 | 124 | 0.0 | 0.0 | 0.43 | 0.89 | 0.89 | 94 | 1012.3 |
| 20260503215032 | 15 | 114 | 0.0 | 0.0 | 0.51 | 0.89 | 0.89 | 94 | 1012.3 |
| 20260503214521 | 15 | 114 | 0.0 | 0.0 | 0.51 | 0.86 | 0.86 | 94 | 1012.3 |
| 20260503214020 | 15 | 115 | 0.0 | 0.0 | 0.43 | 0.79 | 0.79 | 94 | 1012.5 |
| 20260503213521 | 15 | 114 | 0.0 | 0.0 | 0.46 | 0.76 | 0.76 | 94 | 1012.6 |
| 20260503213032 | 15 | 259 | 0.0 | 0.0 | 0.43 | 0.66 | 0.66 | 94 | 1012.7 |
| 20260503212521 | 15 | 127 | 0.0 | 0.0 | 0.46 | 0.64 | 0.64 | 94 | 1012.7 |
| 20260503212021 | 15 | 127 | 0.0 | 0.0 | 0.48 | 0.61 | 0.61 | 94 | 1012.7 |
| 20260503211522 | 15 | 126 | 0.0 | 0.0 | 0.51 | 0.61 | 0.61 | 94 | 1012.7 |
| 20260503211021 | 15 | 126 | 0.0 | 0.0 | 0.51 | 0.58 | 0.58 | 94 | 1012.6 |
| 20260503210532 | 15 | 120 | 0.0 | 0.0 | 0.51 | 0.58 | 0.58 | 94 | 1012.6 |
| 20260503210033 | 15 | 120 | 0.0 | 1.6 | 0.51 | 0.51 | 0.51 | 94 | 1012.7 |
| 20260503205521 | 15 | 120 | 0.0 | 1.6 | 0.43 | 0.46 | 0.43 | 93 | 1012.7 |
| 20260503205032 | 15 | 79 | 0.0 | 1.6 | 0.36 | 0.41 | 0.38 | 93 | 1012.7 |
| 20260503204021 | 15 | 87 | 1.6 | 6.4 | 0.33 | 0.36 | 0.33 | 93 | 1012.7 |
| 20260503203521 | 15 | 113 | 0.0 | 3.2 | 0.25 | 0.30 | 0.28 | 93 | 1012.7 |
| 20260503203023 | 15 | 152 | 0.0 | 1.6 | 0.20 | 0.23 | 0.23 | 93 | 1012.8 |
| 20260503202521 | 15 | 274 | 0.0 | 1.6 | 0.15 | 0.18 | 0.15 | 93 | 1012.4 |
| 20260503202021 | 15 | 274 | 0.0 | 4.8 | 0.13 | 0.15 | 0.15 | 93 | 1012.4 |
| 20260503201520 | 15 | 286 | 3.2 | 4.8 | 0.05 | 0.08 | 0.05 | 92 | 1012.4 |
| 20260503201021 | 15 | 276 | 1.6 | 3.2 | 0.05 | 0.08 | 0.05 | 92 | 1012.2 |
| 20260503200521 | 15 | 112 | 0.0 | 0.0 | 0.05 | 0.08 | 0.05 | 92 | 1011.9 |
| 20260503200021 | 15 | 112 | 0.0 | 0.0 | 0.00 | 0.05 | 0.03 | 92 | 1011.9 |
| 20260503195522 | 15 | 113 | 0.0 | 0.0 | 0.00 | 0.05 | 0.03 | 92 | 1011.7 |
| 20260503195021 | 15 | 113 | 0.0 | 0.0 | 0.00 | 0.05 | 0.03 | 91 | 1011.6 |
| 20260503194522 | 15 | 112 | 0.0 | 0.0 | 0.00 | 0.05 | 0.03 | 91 | 1011.6 |
| 20260503194022 | 15 | 112 | 0.0 | 0.0 | 0.00 | 0.05 | 0.03 | 91 | 1011.6 |
| 20260503193521 | 15 | 108 | 0.0 | 0.0 | 0.00 | 0.05 | 0.03 | 91 | 1011.5 |
| 20260503193021 | 15 | 108 | 0.0 | 0.0 | 0.00 | 0.05 | 0.03 | 91 | 1011.6 |
| 20260503192522 | 15 | 108 | 0.0 | 0.0 | 0.00 | 0.05 | 0.03 | 91 | 1011.6 |
| 20260503192021 | 15 | 108 | 0.0 | 0.0 | 0.00 | 0.05 | 0.03 | 91 | 1011.5 |
| 20260503191522 | 15 | 108 | 0.0 | 0.0 | 0.00 | 0.05 | 0.03 | 91 | 1011.4 |
| 20260503191021 | 15 | 108 | 0.0 | 0.0 | 0.00 | 0.05 | 0.03 | 90 | 1011.4 |
| 20260503190521 | 15 | 108 | 0.0 | 0.0 | 0.00 | 0.05 | 0.03 | 90 | 1011.4 |
| 20260503190025 | 15 | 110 | 0.0 | 0.0 | 0.00 | 0.05 | 0.03 | 90 | 1011.3 |
| 20260503185521 | 15 | 110 | 0.0 | 0.0 | 0.00 | 0.08 | 0.03 | 90 | 1011.3 |
| 20260503185020 | 16 | 110 | 0.0 | 0.0 | 0.00 | 0.08 | 0.03 | 90 | 1011.2 |
| 20260503184521 | 16 | 110 | 0.0 | 0.0 | 0.00 | 0.08 | 0.03 | 90 | 1011.2 |
| 20260503184023 | 16 | 110 | 0.0 | 0.0 | 0.00 | 0.08 | 0.03 | 89 | 1011.1 |
| 20260503183522 | 16 | 110 | 0.0 | 0.0 | 0.00 | 0.08 | 0.03 | 89 | 1011.1 |
| 20260503183022 | 16 | 110 | 0.0 | 0.0 | 0.00 | 0.08 | 0.03 | 89 | 1011.0 |
| 20260503182532 | 16 | 110 | 0.0 | 0.0 | 0.00 | 0.08 | 0.03 | 89 | 1011.1 |
| 20260503182021 | 16 | 110 | 0.0 | 0.0 | 0.00 | 0.08 | 0.03 | 89 | 1011.0 |
| 20260503181521 | 16 | 110 | 0.0 | 0.0 | 0.00 | 0.08 | 0.03 | 89 | 1010.9 |
| 20260503181022 | 16 | 110 | 0.0 | 0.0 | 0.00 | 0.08 | 0.03 | 89 | 1011.0 |
| 20260503180522 | 16 | 93 | 0.0 | 0.0 | 0.00 | 0.08 | 0.03 | 89 | 1010.9 |
| 20260503180021 | 16 | 91 | 0.0 | 0.0 | 0.00 | 0.08 | 0.03 | 89 | 1010.9 |
| 20260503175532 | 16 | 121 | 0.0 | 0.0 | 0.00 | 0.13 | 0.03 | 89 | 1010.9 |
| 20260503175021 | 16 | 113 | 0.0 | 1.6 | 0.00 | 0.13 | 0.03 | 90 | 1011.0 |
| 20260503174521 | 16 | 113 | 0.0 | 1.6 | 0.00 | 0.13 | 0.03 | 89 | 1010.9 |
| 20260503174023 | 16 | 111 | 0.0 | 1.6 | 0.00 | 0.13 | 0.03 | 90 | 1010.9 |
| 20260503173533 | 16 | 113 | 0.0 | 0.0 | 0.00 | 0.13 | 0.03 | 90 | 1011.0 |
| 20260503173032 | 16 | 124 | 0.0 | 0.0 | 0.00 | 0.13 | 0.03 | 89 | 1011.0 |
| 20260503172521 | 16 | 124 | 0.0 | 0.0 | 0.00 | 0.13 | 0.03 | 89 | 1011.1 |
| 20260503172022 | 16 | 155 | 0.0 | 0.0 | 0.00 | 0.13 | 0.03 | 89 | 1011.0 |
| 20260503171522 | 16 | 155 | 0.0 | 0.0 | 0.00 | 0.13 | 0.03 | 89 | 1010.9 |
| 20260503171022 | 16 | 165 | 0.0 | 1.6 | 0.00 | 0.13 | 0.03 | 89 | 1010.9 |
| 20260503170522 | 16 | 125 | 0.0 | 1.6 | 0.00 | 0.13 | 0.03 | 88 | 1010.9 |
| 20260503150526 | 18 | 19 | 0.0 | 6.4 | 0.03 | 0.23 | 0.03 | 83 | 1011.4 |
| 20260503131015 | 20 | 124 | 0.0 | 6.4 | 0.00 | 0.51 | 0.00 | 76 | 1012.4 |
| 20260503130516 | 21 | 118 | 1.6 | 4.8 | 0.00 | 0.51 | 0.00 | 74 | 1012.3 |
| 20260503110516 | 21 | 119 | 3.2 | 6.4 | 0.00 | 0.53 | 0.00 | 74 | 1013.3 |
| 20260503081515 | 17 | 97 | 0.0 | 1.6 | 0.00 | 0.56 | 0.00 | 95 | 1014.0 |
| 20260503081015 | 17 | 86 | 0.0 | 1.6 | 0.00 | 0.56 | 0.00 | 95 | 1014.0 |
| 20260503080515 | 16 | 82 | 0.0 | 1.6 | 0.00 | 0.56 | 0.00 | 95 | 1014.0 |
| 20260503072515 | 15 | 77 | 0.0 | 0.0 | 0.00 | 0.56 | 0.00 | 96 | 1013.9 |
| 20260503072015 | 14 | 77 | 0.0 | 0.0 | 0.00 | 0.56 | 0.00 | 96 | 1013.9 |
| 20260503071527 | 14 | 77 | 0.0 | 0.0 | 0.00 | 0.56 | 0.00 | 96 | 1013.9 |
| 20260503071016 | 13 | 77 | 0.0 | 0.0 | 0.00 | 0.56 | 0.00 | 96 | 1013.9 |
| 20260503070515 | 13 | 77 | 0.0 | 0.0 | 0.00 | 0.56 | 0.00 | 96 | 1013.8 |
| 20260503055015 | 10 | 77 | 0.0 | 0.0 | 0.00 | 0.56 | 0.00 | 96 | 1013.4 |
| 20260503054516 | 10 | 77 | 0.0 | 0.0 | 0.00 | 0.56 | 0.00 | 96 | 1013.4 |
| 20260503054016 | 10 | 77 | 0.0 | 0.0 | 0.00 | 0.56 | 0.00 | 96 | 1013.3 |
| 20260503053516 | 10 | 77 | 0.0 | 0.0 | 0.00 | 0.56 | 0.00 | 96 | 1013.3 |
| 20260503053017 | 9 | 77 | 0.0 | 0.0 | 0.00 | 0.56 | 0.00 | 96 | 1013.3 |
| 20260503052516 | 9 | 77 | 0.0 | 0.0 | 0.00 | 0.56 | 0.00 | 96 | 1013.3 |
| 20260503052016 | 9 | 77 | 0.0 | 0.0 | 0.00 | 0.56 | 0.00 | 96 | 1013.3 |
| 20260503051516 | 9 | 77 | 0.0 | 0.0 | 0.00 | 0.56 | 0.00 | 96 | 1013.3 |
| 20260503051015 | 9 | 77 | 0.0 | 0.0 | 0.00 | 0.56 | 0.00 | 96 | 1013.2 |
| 20260503050516 | 9 | 77 | 0.0 | 0.0 | 0.00 | 0.56 | 0.00 | 96 | 1013.2 |
| 20260503050027 | 8 | 77 | 0.0 | 0.0 | 0.00 | 0.56 | 0.00 | 96 | 1013.2 |
| 20260503045516 | 8 | 77 | 0.0 | 0.0 | 0.00 | 0.56 | 0.00 | 96 | 1013.2 |
| 20260503045027 | 8 | 77 | 0.0 | 0.0 | 0.00 | 0.56 | 0.00 | 96 | 1013.1 |
| 20260503044515 | 8 | 77 | 0.0 | 0.0 | 0.00 | 0.56 | 0.00 | 96 | 1013.1 |
| 20260503044016 | 8 | 77 | 0.0 | 0.0 | 0.00 | 0.56 | 0.00 | 96 | 1013.1 |
| 20260503043516 | 8 | 77 | 0.0 | 0.0 | 0.00 | 0.56 | 0.00 | 95 | 1013.1 |
| 20260503043015 | 8 | 77 | 0.0 | 0.0 | 0.00 | 0.56 | 0.00 | 96 | 1013.1 |
| 20260503042516 | 8 | 77 | 0.0 | 0.0 | 0.00 | 0.56 | 0.00 | 95 | 1013.1 |
| 20260503042016 | 8 | 77 | 0.0 | 0.0 | 0.00 | 0.56 | 0.00 | 95 | 1013.2 |
| 20260503041514 | 8 | 77 | 0.0 | 0.0 | 0.00 | 0.56 | 0.00 | 95 | 1013.1 |
| 20260503041016 | 8 | 77 | 0.0 | 0.0 | 0.00 | 0.56 | 0.00 | 95 | 1013.2 |
| 20260503040527 | 8 | 77 | 0.0 | 0.0 | 0.00 | 0.56 | 0.00 | 95 | 1013.2 |
| 20260503040016 | 9 | 77 | 0.0 | 0.0 | 0.00 | 0.56 | 0.00 | 95 | 1013.2 |
| 20260503035515 | 9 | 77 | 0.0 | 0.0 | 0.00 | 0.56 | 0.00 | 95 | 1013.2 |
| 20260503035016 | 9 | 77 | 0.0 | 0.0 | 0.00 | 0.56 | 0.00 | 95 | 1013.2 |
| 20260503034516 | 9 | 77 | 0.0 | 0.0 | 0.00 | 0.56 | 0.00 | 95 | 1013.2 |
| 20260503034027 | 9 | 77 | 0.0 | 0.0 | 0.00 | 0.56 | 0.00 | 95 | 1013.3 |
| 20260503033516 | 10 | 77 | 0.0 | 0.0 | 0.00 | 0.56 | 0.00 | 95 | 1013.3 |
| 20260503033015 | 10 | 77 | 0.0 | 0.0 | 0.00 | 0.56 | 0.00 | 96 | 1013.4 |
| 20260503032516 | 9 | 77 | 0.0 | 0.0 | 0.00 | 0.56 | 0.00 | 95 | 1013.4 |
| 20260503032016 | 10 | 77 | 0.0 | 0.0 | 0.00 | 0.56 | 0.00 | 95 | 1013.4 |
| 20260503031527 | 10 | 77 | 0.0 | 0.0 | 0.00 | 0.56 | 0.00 | 95 | 1013.3 |
| 20260503031016 | 10 | 77 | 0.0 | 0.0 | 0.00 | 0.56 | 0.00 | 95 | 1013.4 |
| 20260503030516 | 10 | 77 | 0.0 | 0.0 | 0.00 | 0.56 | 0.00 | 95 | 1013.4 |
| 20260503030016 | 10 | 77 | 0.0 | 0.0 | 0.00 | 0.56 | 0.00 | 95 | 1013.4 |
| 20260503025516 | 10 | 77 | 0.0 | 0.0 | 0.00 | 0.56 | 0.00 | 95 | 1013.4 |
| 20260503025015 | 10 | 77 | 0.0 | 0.0 | 0.00 | 0.56 | 0.00 | 95 | 1013.4 |
| 20260503024516 | 10 | 77 | 0.0 | 0.0 | 0.00 | 0.56 | 0.00 | 95 | 1013.4 |